Notices

What's New in latest Release from April 7th, 2021:

- Updated Glossary, including Speed of Maximum Gust, and Total Hourly Precipitation

- Updated national and regional climate services offices contacts and prices information

- Addition of station inventory lists for 1981-2010, 1971-2000, and 1961-1990 Normals.

If you haven't already, please take our survey and provide feedback about our website: https://eccc.sondage-survey.ca/f/LanguageSelection.aspx?s=442ca660-fcf1-47c0-95a9-59707d6fd709

Hourly Data Report for December 05, 2004

TORONTO CITY
ONTARIO

43°40'00.000" N
79°24'00.000" W
112.50 m
6158355
71508
XTO

Download Data

Hourly Data (December 2004)
Hourly Data Report for December 5, 2004
TIME
LST
Temp Definition
°C
Dew Point Definition
°C
Rel Hum Definition
%
Precip. Amount Definition
mm

Wind Dir Definition
10's deg

Wind Spd Definition
km/h
Visibility Definition
km
Stn Press Definition
kPa
Hmdx Definition


Wind Chill Definition


Weather Definition


00:00 5.7 2.6 80   LegendMM LegendMM LegendMM 99.54     LegendNANA
01:00 5.1 2.1 81   LegendMM LegendMM LegendMM 99.63     LegendNANA
02:00 4.9 1.6 79   LegendMM LegendMM LegendMM 99.78     LegendNANA
03:00 3.7 -0.3 75   LegendMM LegendMM LegendMM 99.92     LegendNANA
04:00 3.6 -1.0 72   LegendMM LegendMM LegendMM 100.03     LegendNANA
05:00 2.7 -4.0 61   LegendMM LegendMM LegendMM 100.16     LegendNANA
06:00 2.6 -3.8 63   LegendMM LegendMM LegendMM 100.27     LegendNANA
07:00 1.4 -6.1 57   LegendMM LegendMM LegendMM 100.45     LegendNANA
08:00 1.0 -3.6 71   LegendMM LegendMM LegendMM 100.60     LegendNANA
09:00 0.6 -4.0 71   LegendMM LegendMM LegendMM 100.76     LegendNANA
10:00 0.5 -5.1 66   LegendMM LegendMM LegendMM 100.90     LegendNANA
11:00 0.2 -6.6 60   LegendMM LegendMM LegendMM 100.98     LegendNANA
12:00 0.6 -6.3 60   LegendMM LegendMM LegendMM 101.01     LegendNANA
13:00 0.8 -7.0 56   LegendMM LegendMM LegendMM 101.05     LegendNANA
14:00 0.1 -7.8 55   LegendMM LegendMM LegendMM 101.11     LegendNANA
15:00 -0.2 -7.2 59   LegendMM LegendMM LegendMM 101.13     LegendNANA
16:00 -0.4 -8.1 56   LegendMM LegendMM LegendMM 101.19     LegendNANA
17:00 -0.9 -8.6 56   LegendMM LegendMM LegendMM 101.21     LegendNANA
18:00 -1.5 -7.6 63   LegendMM LegendMM LegendMM 101.30     LegendNANA
19:00 -1.9 -7.8 64   LegendMM LegendMM LegendMM 101.29     LegendNANA
20:00 -2.0 -7.8 64   LegendMM LegendMM LegendMM 101.31     LegendNANA
21:00 -2.1 -7.7 65   LegendMM LegendMM LegendMM 101.31     LegendNANA
22:00 -2.3 -7.7 66   LegendMM LegendMM LegendMM 101.31     LegendNANA
23:00 -2.6 -8.0 66   LegendMM LegendMM LegendMM 101.28     LegendNANA

Notes on Data Quality.

Legend

  • E = Estimated
  • M = Missing
  • NA = Not Available*
  • [empty] = Indicates an unobserved value
Date modified: